Regional Weather Roundup
Issued by NWS Newport/Morehead, NC

Home | Current Version | Previous Version | Text Only | Print | Product List | Glossary On
Versions: 1 2 3 4 5 6 7 8 9 10 11 12 13 14 15 16 17 18 19 20 21 22 23 24 25 26 27 28 29 30 31 32 33 34 35 36 37 38 39 40 41 42 43 44 45 46 47 48 49 50
000
ASUS42 KMHX 210622
RWRMHX
WEATHER ROUNDUP FOR EASTERN NORTH CAROLINA
NATIONAL WEATHER SERVICE NEWPORT/MOREHEAD CITY NC
100 AM EST SUN DEC 21 2014

NOTE: "FAIR" INDICATES FEW OR NO CLOUDS BELOW 12,000 FEET
WITH NO SIGNIFICANT WEATHER AND/OR OBSTRUCTIONS TO VISIBILITY

NCZ015>017-031-032-045>047-102-103-210700-
NORTH COAST

CITY           SKY/WX    TMP DP  RH WIND       PRES   REMARKS
EDENTON          N/A     32  30  94 CALM      30.29R
ELIZABETH CITY CLEAR     39  30  70 N7        30.28F
KITTY HAWK     CLEAR     40  33  76 N3        30.25S
MANTEO         CLEAR     38  34  85 N3        30.27S

$$

NCZ045>047-081-094-103-104-210700-
CENTRAL COAST

CITY           SKY/WX    TMP DP  RH WIND       PRES   REMARKS
FRISCO         PTCLDY    43  37  79 N8        30.24F
SWANQUARTER      N/A     37 N/A N/A N2        30.24S

$$

NCZ095-097-098-100-101-210700-
SOUTHERN COAST

CITY           SKY/WX    TMP DP  RH WIND       PRES   REMARKS
BEAUFORT       CLOUDY    41  37  86 N6        30.25F
CEDAR ISLAND     N/A     43 N/A N/A N10G16    30.30S
JACKSONVILLE   CLOUDY    38  36  92 N6        30.25F
PINEY ISLAND   MOCLDY    44  36  73 NE8       30.25S
WILMINGTON     CLOUDY    39  37  92 NE7       30.24F


$$

NCZ011>013-027>030-043-044-078>080-089-090>093-098-210700-
COASTAL PLAIN

CITY           SKY/WX    TMP DP  RH WIND       PRES   REMARKS
AHOSKIE        CLEAR     29  27  94 CALM      30.30S
CLINTON        CLOUDY    35  35 100 CALM      30.26F FOG
ELIZABETHTOWN  CLOUDY    37  37 100 CALM      30.26R FOG
GOLDSBORO      CLEAR     36  35  98 NE1       30.25F
GREENVILLE     MOCLDY    32  32 100 CALM      30.29S FOG
HAVELOCK       CLOUDY    40  36  86 NE8       30.26F
KENANSVILLE      N/A     32  32 100 CALM      30.27F FOG
KINSTON        CLEAR     34  33  97 N3        30.27F FOG
NEW BERN       MOCLDY    37  33  85 NE6       30.27F
RICHLANDS      MOCLDY    36  30  80 N5        30.26F
ROCKY MOUNT    CLOUDY    36  35  96 CALM      30.28S FOG
WASHINGTON     PTCLDY    36  33  88 N6        30.28S
WHITEVILLE     CLOUDY    39  37  90 NE3       30.24F

$$

AMZ130-135-150-152-154-156-158-170-250-252-270-ANZ085-086-088-633-658-670-210700-
MARINE OBSERVATIONS

STATION/POSITION TIME  TEMP    WIND        PRES    WAVE   SWELL
                       AIR SEA DIR/SP/G            HT/PER HT/PER
                 (UTC) (F)     (DEG/KT/KT) (MB)    (FT/S) (FT/S)
CHESAPEAKE LIGHT 0600   39      10/ 10/ 11 1025.8
64 E VA BEACH    0600   44 54  350/ 12/ 14 1024.0    2/10   2/10
DUCK             0600   40 46  330/  9/ 10 1024.1
2 E DUCK         0600      45                N/A     2/ 5
10 NE DUCK       0600      52                N/A     2/ 5
OREGON INLET     0600   42 48  350/  7/  9 1024.6
13E OREGON INLT  0600      52                N/A     3/ 6
HATTERAS CG      0600   45 50   10/ 13/ 15 1024.4
DIAMOND BUOY     0600   49                 1023.9    3/ 4
17 S OCRACOKE    NOT AVBL
CAPE LOOKOUT     0600   44      10/ 12/ 15 1023.7
BEAUFORT LAB     0600   41 51   20/  5/  9 1023.1
30 SE NEW RIVER  0600   50 61   30/ 17/ 19 1023.5    3/ 5   2/10
5 SE WRIGHTSVLE  NOT AVBL
225 S CAPE HAT   0500   65 71  100/ 17/ 21 1020.0    6/ 6   2/10
41 SE CHARLESTON 0600   61 69   30/ 19/ 25 1020.3    6/ 6   2/11

$$


USA.gov is the U.S. government's official web portal to all federal, state and local government web resources and services.